Location: �terpigny
(49.8910°N, 2.9249°E)
Time: 03:52:32
(UTC+00:00)

Cosmos 614 Rocket - Pass Details

Date: 06 June 2022
Orbit: 732 x 764 km, 74.1° (Epoch: 06 July)

Event Time Altitude Azimuth Distance (km) Brightness Sun altitude
Rises 22:21:44 0° 341° (NNW) 3,226 9.2 -15.0°
Reaches altitude 10° 22:24:27 10° 354° (N) 2,301 7.8 -15.1°
Maximum altitude 22:28:53 27° 52° (NE) 1,434 5.6 -15.3°
Drops below altitude 10° 22:33:18 10° 110° (ESE) 2,299 6.1 -15.6°
Enters shadow 22:33:26 10° 111° (ESE) 2,339 6.2 -15.6°
